Marion, IN

2:05 PM EDT on March 29, 2017 (GMT -0400)
Marion Municipal

Weather History for KMZZ - June, 2014

Change the Weather History Date:

Wednesday, June 18, 2014

  Actual Average (KMIE) Record (KMIE)
Temperature  
Mean Temperature 79 °F -  
Max Temperature 88 °F 82 °F 92 °F (1970)
Min Temperature 70 °F 62 °F 44 °F (1999)
Cooling Degree Days 14    
Growing Degree Days 29 (Base 50)    
Moisture  
Dew Point 66 °F    
Average Humidity 70    
Maximum Humidity 85    
Minimum Humidity 49    
Precipitation  
Precipitation 0.00 in - - ()
Sea Level Pressure  
Sea Level Pressure 30.01 in    
Wind  
Wind Speed 8 mph (SW)    
Max Wind Speed 18 mph    
Max Gust Speed 32 mph    
Visibility 8 miles    
Events      
Averages and records for this station are not official NWS values.
T = Trace of Precipitation, MM = Missing Value Source: NWS Daily Summary

Daily Weather History Graph

Daily Weather History Graph

Search for Another Location

Airport or City:

Trip Planner

Search our weather history database for the weather conditions in past years. The results will help you decide how hot, cold, wet, or windy it might be!

Date:

Astronomy

Jun. 18, 2014 Rise Set
Actual Time 6:11 AM EDT 9:15 PM EDT
Civil Twilight 5:38 AM EDT 9:49 PM EDT
Nautical Twilight 4:56 AM EDT 10:31 PM EDT
Astronomical Twilight 4:06 AM EDT 11:21 PM EDT
Moon 12:43 AM EDT (6/18) 12:35 PM EDT (6/18)
Length of Visible Light 16h 10m
Length of Day
15h 04m
Waning Gibbous, 63% of the Moon is Illuminated
Jun 18
Waning Gibbous
Jun 19
Last Quarter
Jun 27
New
Jul 5
First Quarter
Jul 12
Full

Hourly Weather History & Observations

Time (EDT) Temp. Heat Index Dew Point Humidity Pressure Visibility Wind Dir Wind Speed Gust Speed Precip Events Conditions
12:15 AM 74.1 °F - 67.1 °F 79% 30.01 in 10.0 mi SW 5.8 mph - N/A   Clear
12:35 AM 74.5 °F - 67.1 °F 78% 30.01 in 7.0 mi SW 8.1 mph - N/A   Clear
12:55 AM 74.8 °F - 67.1 °F 77% 30.02 in 7.0 mi SSW 4.6 mph - N/A   Clear
1:15 AM 74.5 °F - 67.3 °F 78% 30.02 in 7.0 mi SSW 6.9 mph - N/A   Clear
1:35 AM 73.6 °F - 67.5 °F 81% 30.03 in 7.0 mi SW 6.9 mph - N/A   Clear
2:15 AM 73.0 °F - 67.5 °F 83% 30.03 in 5.0 mi SW 4.6 mph - N/A   Haze
2:35 AM 72.7 °F - 67.5 °F 84% 30.02 in 7.0 mi SW 6.9 mph - N/A   Clear
2:55 AM 73.4 °F - 67.6 °F 82% 30.02 in 7.0 mi SW 6.9 mph - N/A   Clear
3:15 AM 74.1 °F - 67.6 °F 80% 30.02 in 10.0 mi SW 6.9 mph - N/A   Clear
3:35 AM 73.8 °F - 67.5 °F 81% 30.01 in 7.0 mi SW 9.2 mph - N/A   Clear
3:55 AM 74.1 °F - 67.5 °F 80% 30.01 in 10.0 mi SW 8.1 mph - N/A   Clear
4:15 AM 74.3 °F - 67.3 °F 79% 30.01 in 7.0 mi SW 8.1 mph - N/A   Clear
4:35 AM 74.3 °F - 67.3 °F 79% 30.01 in 7.0 mi SW 8.1 mph - N/A   Clear
4:55 AM 74.3 °F - 67.1 °F 78% 30.00 in 10.0 mi SW 10.4 mph - N/A   Clear
5:15 AM 73.8 °F - 67.1 °F 80% 29.99 in 10.0 mi SW 8.1 mph - N/A   Clear
5:35 AM 73.2 °F - 67.1 °F 81% 29.99 in 10.0 mi SW 5.8 mph - N/A   Clear
5:55 AM 72.0 °F - 66.7 °F 84% 29.99 in 7.0 mi SSW 8.1 mph - N/A   Clear
6:15 AM 71.6 °F - 66.7 °F 85% 29.99 in 7.0 mi SW 5.8 mph - N/A   Clear
6:35 AM 71.8 °F - 66.7 °F 84% 30.00 in 5.0 mi SW 6.9 mph - N/A   Haze
6:55 AM 72.7 °F - 66.7 °F 82% 30.01 in 7.0 mi SW 6.9 mph - N/A   Clear
7:15 AM 73.4 °F - 66.7 °F 80% 30.03 in 7.0 mi WSW 6.9 mph - N/A   Clear
7:35 AM 74.1 °F - 66.9 °F 78% 30.04 in 7.0 mi WSW 4.6 mph - N/A   Clear
7:55 AM 74.8 °F - 67.1 °F 77% 30.05 in 7.0 mi WSW 8.1 mph - N/A   Clear
8:15 AM 75.7 °F - 67.5 °F 75% 30.05 in 7.0 mi SW 9.2 mph - N/A   Clear
8:35 AM 76.8 °F - 67.5 °F 73% 30.05 in 10.0 mi WSW 10.4 mph - N/A   Clear
8:55 AM 77.7 °F - 67.3 °F 70% 30.06 in 5.0 mi WSW 11.5 mph - N/A   Haze
9:15 AM 78.1 °F - 67.5 °F 70% 30.06 in 7.0 mi WSW 12.7 mph 17.3 mph N/A   Scattered Clouds
9:35 AM 78.6 °F - 67.5 °F 68% 30.06 in 7.0 mi WSW 10.4 mph - N/A   Scattered Clouds
10:15 AM 79.9 °F - 68.0 °F 67% 30.04 in 7.0 mi WSW 12.7 mph - N/A   Scattered Clouds
10:35 AM 81.0 °F 83.8 °F 68.4 °F 65% 30.04 in 7.0 mi WSW 11.5 mph 17.3 mph N/A   Scattered Clouds
10:55 AM 82.0 °F 85.1 °F 68.5 °F 63% 30.04 in 10.0 mi WSW 11.5 mph 17.3 mph N/A   Clear
11:15 AM 82.9 °F 86.7 °F 69.4 °F 64% 30.04 in 10.0 mi WSW 10.4 mph - N/A   Clear
11:35 AM 83.7 °F 87.5 °F 69.3 °F 62% 30.04 in 7.0 mi WSW 13.8 mph 18.4 mph N/A   Scattered Clouds
11:55 AM 84.2 °F 88.1 °F 69.4 °F 61% 30.04 in 7.0 mi WSW 12.7 mph 18.4 mph N/A   Mostly Cloudy
12:15 PM 84.6 °F 88.5 °F 69.3 °F 60% 30.04 in 5.0 mi WSW 11.5 mph 17.3 mph N/A   Haze
12:35 PM 85.1 °F 89.1 °F 69.4 °F 59% 30.04 in 7.0 mi SW 12.7 mph 16.1 mph N/A   Mostly Cloudy
12:55 PM 85.6 °F 89.7 °F 69.4 °F 58% 30.03 in 7.0 mi SW 11.5 mph 18.4 mph N/A   Scattered Clouds
1:15 PM 85.8 °F 89.7 °F 69.1 °F 57% 30.02 in 7.0 mi SW 9.2 mph - N/A   Scattered Clouds
1:35 PM 85.8 °F 89.4 °F 68.7 °F 56% 30.02 in 5.0 mi SW 12.7 mph 17.3 mph N/A   Haze
1:55 PM 85.8 °F 89.4 °F 68.4 °F 56% 30.01 in 5.0 mi SW 10.4 mph 21.9 mph N/A   Haze
2:15 PM 86.5 °F 90.0 °F 68.2 °F 54% 30.00 in 7.0 mi SW 9.2 mph 18.4 mph N/A   Mostly Cloudy
2:35 PM 86.4 °F 89.7 °F 68.0 °F 54% 29.99 in 4.0 mi SW 10.4 mph 19.6 mph N/A   Haze
2:55 PM 87.3 °F 90.9 °F 68.4 °F 53% 29.99 in 7.0 mi SSW 12.7 mph 20.7 mph N/A   Scattered Clouds
3:35 PM 87.6 °F 90.4 °F 66.7 °F 50% 29.98 in 10.0 mi WSW 16.1 mph 21.9 mph N/A   Scattered Clouds
3:55 PM 88.0 °F 90.7 °F 66.4 °F 49% 29.98 in 7.0 mi WSW 17.3 mph 23.0 mph N/A   Clear
4:35 PM 87.1 °F 89.9 °F 67.1 °F 51% 29.98 in 10.0 mi WSW 15.0 mph 20.7 mph N/A   Mostly Cloudy
4:55 PM 85.3 °F 87.6 °F 66.2 °F 53% 30.01 in 10.0 mi North 16.1 mph 32.2 mph N/A   Scattered Clouds
5:15 PM 77.2 °F - 63.7 °F 63% 29.99 in 7.0 mi North 11.5 mph - N/A   Mostly Cloudy
5:35 PM 76.5 °F - 65.1 °F 68% 29.96 in 7.0 mi Calm Calm - N/A   Scattered Clouds
6:15 PM 79.0 °F - 66.6 °F 66% 29.98 in 7.0 mi South 5.8 mph - N/A   Clear
6:35 PM 79.3 °F - 65.7 °F 63% 29.96 in 10.0 mi South 8.1 mph - N/A   Clear
6:55 PM 78.3 °F - 66.2 °F 66% 29.92 in 7.0 mi SSE 16.1 mph - N/A   Clear
7:15 PM 77.7 °F - 64.9 °F 65% 29.95 in 7.0 mi SSW 18.4 mph 23.0 mph N/A   Clear
7:35 PM 76.1 °F - 61.0 °F 59% 29.98 in 7.0 mi West 9.2 mph - N/A   Clear
7:55 PM 74.8 °F - 61.3 °F 63% 29.99 in 10.0 mi West 9.2 mph - N/A   Scattered Clouds
8:15 PM 74.5 °F - 61.7 °F 64% 29.99 in 10.0 mi West 5.8 mph - N/A   Scattered Clouds
8:35 PM 73.9 °F - 61.7 °F 65% 30.01 in 7.0 mi SW 5.8 mph - N/A   Scattered Clouds
8:55 PM 73.4 °F - 62.1 °F 68% 30.01 in 7.0 mi South 3.5 mph - N/A   Scattered Clouds
9:15 PM 73.4 °F - 61.7 °F 67% 30.02 in 7.0 mi Calm Calm - N/A   Clear
9:35 PM 73.0 °F - 61.7 °F 67% 30.01 in 7.0 mi Calm Calm - N/A   Clear
9:55 PM 72.0 °F - 62.6 °F 72% 30.02 in 7.0 mi South 3.5 mph - N/A   Mostly Cloudy
10:15 PM 72.5 °F - 62.4 °F 71% 30.01 in 10.0 mi South 5.8 mph - N/A   Scattered Clouds
10:35 PM 71.8 °F - 62.6 °F 73% 30.00 in 10.0 mi South 4.6 mph - N/A   Clear
10:55 PM 71.1 °F - 62.8 °F 75% 30.01 in 10.0 mi SSW 3.5 mph - N/A   Mostly Cloudy
11:15 PM 70.7 °F - 63.1 °F 77% 30.01 in 7.0 mi SSW 3.5 mph - N/A   Scattered Clouds
11:35 PM 70.7 °F - 62.8 °F 76% 30.01 in 10.0 mi SW 5.8 mph - N/A   Scattered Clouds
11:55 PM 71.6 °F - 62.6 °F 73% 30.03 in 10.0 mi West 18.4 mph 26.5 mph N/A   Scattered Clouds